Location: Windsor
(43.2292°N, 89.3015°W)
Time: 06:57:14
(UTC+00:00)

RS-44 - Pass Details

Date: 30 June 2022
Orbit: 1175 x 1510 km, 82.5° (Epoch: 14 August)

Event Time Altitude Azimuth Distance (km) Brightness Sun altitude
Rises 02:13:24 0° 178° (S) 4,286 ? -5.5°
Reaches altitude 10° 02:16:04 10° 177° (S) 3,362 ? -5.9°
Maximum altitude 02:24:05 74° 94° (E) 1,458 ? -7.0°
Drops below altitude 10° 02:32:43 10° 12° (NNE) 3,614 ? -8.2°
Sets 02:35:41 0° 11° (N) 4,623 ? -8.6°
